Printer-friendly version

IAU Minor Planet Center

Minor Planet Center

MPEC 2007-C47 : 2007 CA19

The following Minor Planet Electronic Circular may be linked-to from your own Web pages, but must not otherwise be redistributed electronically.


Read MPEC 2007-C46 Read MPEC 2007-C48


M.P.E.C. 2007-C47                                Issued 2007 Feb. 11, 01:16 UT

     The Minor Planet Electronic Circulars contain information on unusual
         minor planets and routine data on comets.  They are published
   on behalf of Commission 20 of the International Astronomical Union by the
          Minor Planet Center, Smithsonian Astrophysical Observatory,
                          Cambridge, MA 02138, U.S.A.

             Prepared using the Tamkin Foundation Computer Network

                              MPC@CFA.HARVARD.EDU
          URL http://cfa-www.harvard.edu/iau/mpc.html  ISSN 1523-6714

                                   2007 CA19

Observations:
     K07C19A* C2007 02 10.26806 10 03 59.25 +00 33 17.4          19.3 V EC047703
     K07C19A  C2007 02 10.27446 10 03 58.53 +00 33 21.4          19.1 V EC047703
     K07C19A  C2007 02 10.28088 10 03 57.78 +00 33 24.6          18.9 V EC047703
     K07C19A  C2007 02 10.28733 10 03 57.09 +00 33 27.4          18.9 V EC047703
     K07C19A  C2007 02 10.35902 10 03 48.74 +00 34 05.3          19.2 V EC047703
     K07C19A  C2007 02 10.36598 10 03 47.95 +00 34 09.7          19.2 V EC047703
     K07C19A  C2007 02 10.56089 10 03 26.72 +00 35 53.9          19.4 V EC047D35
     K07C19A  C2007 02 10.56219 10 03 26.58 +00 35 54.6          18.6 V EC047D35
     K07C19A  C2007 02 10.56500 10 03 26.27 +00 35 55.8          19.7 V EC047D35
     K07C19A  C2007 02 10.97806 10 02 38.86 +00 39 35.4          18.3 R EC047473
     K07C19A  C2007 02 10.98197 10 02 38.39 +00 39 37.3          18.2 R EC047473
     K07C19A  C2007 02 10.98587 10 02 37.92 +00 39 39.2          18.1 R EC047473

Observer details:
473 Remanzacco.  Observers G. Sostero, E. Guido.  0.45-m f/4.4 Newtonian
    reflector + CCD.
703 Catalina Sky Survey.  Observer E. J. Christensen.  Measurers E. C. Beshore,
    E. J. Christensen, G. J. Garradd, A. R. Gibbs, A. D. Grauer, R. E. Hill,
    R. A. Kowalski, S. M. Larson, R. H. McNaught.  0.68-m Schmidt + CCD.
D35 Lulin Observatory.  Observers H.-C. Lin, C.-S. Lin, Q.-z. Ye.  Measurer
    Q.-z. Ye.  0.41-m f/8.8 Ritchey-Chretien + 2Kx2K CCD + f/6.25 focal
    reducer.

Orbital elements:
2007 CA19                                           PHA, Earth MOID = 0.0002 AU
Epoch 2007 Apr. 10.0 TT = JDT 2454200.5                 MPC
M 343.61180              (2000.0)            P               Q
n   0.33953315     Peri.   95.37340     +0.07307679     +0.99732165
a   2.0349228      Node   178.80451     -0.96312936     +0.07136476
e   0.7375918      Incl.    8.40650     -0.25892397     +0.01601848
P   2.90           H   17.9           G   0.15           U   9
Residuals in seconds of arc
070210 703  0.3-  0.4-    070210 703  0.2-  0.1-    070210 D35  0.2+  0.2-
070210 703  0.0   0.3+    070210 703  0.1+  0.6+    070210 473  0.1+  0.2+
070210 703  0.2-  0.1+    070210 D35  0.2-  0.1+    070210 473  0.0   0.0
070210 703  0.6+  0.4-    070210 D35  0.0   0.1+    070210 473  0.1-  0.2-

Ephemeris:
2007 CA19                a,e,i = 2.03, 0.74, 8                   q = 0.5340
Date    TT    R. A. (2000) Decl.     Delta      r     Elong.  Phase     V
2007 02 09    10 06.28   +00 22.8    0.759    1.726   162.8     9.8    19.1
2007 02 19    09 44.88   +02 12.7    0.639    1.621   169.1     6.6    18.5
2007 03 01    09 16.04   +05 07.1    0.547    1.511   157.5    14.5    18.3
2007 03 11    08 41.28   +08 59.5    0.483    1.396   139.5    27.5    18.3
2007 03 21    08 03.73   +13 25.5    0.442    1.276   120.1    42.5    18.3
2007 03 31    07 26.34   +17 55.9    0.417    1.152   100.7    58.4    18.4
2007 04 10    06 48.80   +22 16.0    0.399    1.023    81.6    75.7    18.6
2007 04 20    06 06.15   +26 20.7    0.382    0.891    62.0    95.8    19.0

Timothy B. Spahr             (C) Copyright 2007 MPC           M.P.E.C. 2007-C47

Read MPEC 2007-C46 Read MPEC 2007-C48


Our Web policy. Index to the CBAT/MPC/ICQ pages.


Valid HTML 4.01!